Location: Vancouver
(49.2500°N, 123.1330°W)
Time: 16:30:53
(UTC-07:00)

A-11 Canister half - Visible Passes

Search period start: 25 October 2014 00:00
Search period end: 03 November 2014 23:00
Orbit: 1525 x 1685 km, 47.3° (Epoch: 23 October)

Date Brightness Start Highest point End Pass type
(mag) Time Alt. Az. Time Alt. Az. Time Alt. Az.
25 Oct 11.3 18:50:14 10° W 18:55:31 17° SW 19:00:50 10° SSW visible
26 Oct 11.4 18:28:31 10° W 18:34:06 18° SW 18:39:43 10° SSW visible
03 Nov 11.1 06:18:05 10° S 06:25:51 28° SE 06:33:25 10° E visible
